7 * 24
多渠道服务支持
JILIN-01 GAOFEN 3D 28是中国于2022年5月5日发射的吉林一号高分03D系列卫星,隶属于吉林一号商业遥感卫星星座。该卫星主要用于获取高分辨率遥感影像,可在自然资源监测、智慧城市建设、农业估产、灾害预警等领域提供数据服务,进一步提升了吉林一号星座的对地观测能力。
中国
(CN)
| 数据来源 | 国际轨道数据 |
| 星历时间: | 2026-08-20T02:25:46+0800 轨道信息已过期22天 |
| 半长轴: | 6516.377km |
| 偏心率: | 0.0013726 |
| 轨道倾角: | 97.564° |
| 近地点辐角 | 259.516° |
| 升交点赤经 | 353.473° |
| 平近点角 | 100.460° |
| 近地点: | 129.295km |
| 远地点: | 147.185km |
| 周期: | 87.251分钟 |
| 每日圈数: | 16.504163 |